Time,TemperatureF,DewpointF,PressureIn,WindDirection,WindDirectionDegrees,WindSpeedMPH,WindSpeedGustMPH,Humidity,HourlyPrecipIn,Conditions,Clouds,dailyrainin,SoftwareType,DateUTC
2013-05-15 06:57:00,73.0,66.0,30.10,ENE,58,9.0,21.0,80,0.00,,,0.01,,2013-05-15 16:57:00,
2013-05-15 07:06:00,73.0,67.0,30.11,ENE,59,3.0,16.0,81,0.00,,,0.01,,2013-05-15 17:06:00,
2013-05-15 07:14:00,73.0,67.0,30.11,ENE,59,3.0,16.0,81,0.00,,,0.01,,2013-05-15 17:14:00,
2013-05-15 07:23:00,73.0,66.0,30.11,East,84,5.0,14.0,80,0.00,,,0.01,,2013-05-15 17:23:00,
2013-05-15 07:32:00,73.0,66.0,30.12,ENE,78,10.0,19.0,79,0.00,,,0.01,,2013-05-15 17:32:00,
2013-05-15 07:42:00,73.0,66.0,30.12,ENE,78,10.0,19.0,79,0.00,,,0.01,,2013-05-15 17:42:00,
2013-05-15 07:57:00,74.0,67.0,30.12,East,79,8.0,17.0,78,0.00,,,0.01,,2013-05-15 17:57:00,
2013-05-15 08:11:00,74.0,66.0,30.12,ENE,78,10.0,22.0,76,0.00,,,0.01,,2013-05-15 18:11:00,
2013-05-15 08:22:00,74.0,66.0,30.13,ENE,76,12.0,23.0,76,0.00,,,0.00,,2013-05-15 18:22:00,
2013-05-15 08:55:00,75.0,66.0,30.14,NE,36,12.0,21.0,74,0.00,,,0.00,,2013-05-15 18:55:00,
2013-05-15 09:02:00,75.0,66.0,30.14,NE,49,9.0,22.0,74,0.00,,,0.00,,2013-05-15 19:02:00,
2013-05-15 09:12:00,75.0,66.0,30.14,NE,49,9.0,22.0,74,0.00,,,0.00,,2013-05-15 19:12:00,
2013-05-15 09:22:00,75.0,66.0,30.15,ENE,75,8.0,17.0,74,0.00,,,0.00,,2013-05-15 19:22:00,
2013-05-15 09:32:00,76.0,66.0,30.14,East,95,6.0,23.0,72,0.00,,,0.00,,2013-05-15 19:32:00,
2013-05-15 10:22:00,76.0,66.0,30.14,East,82,8.0,18.0,72,0.00,,,0.00,,2013-05-15 20:22:00,
2013-05-15 10:32:00,76.0,66.0,30.14,East,98,14.0,21.0,72,0.00,,,0.00,,2013-05-15 20:32:00,
2013-05-15 10:43:00,76.0,66.0,30.14,East,98,14.0,21.0,72,0.00,,,0.00,,2013-05-15 20:43:00,
2013-05-15 10:54:00,76.0,66.0,30.14,NNE,19,6.0,21.0,72,0.00,,,0.00,,2013-05-15 20:54:00,
2013-05-15 11:12:00,76.0,67.0,30.14,East,82,9.0,17.0,73,0.00,,,0.00,,2013-05-15 21:12:00,
2013-05-15 11:24:00,76.0,66.0,30.14,ENE,74,13.0,26.0,72,0.00,,,0.00,,2013-05-15 21:24:00,
2013-05-15 11:34:00,76.0,66.0,30.13,ESE,111,10.0,17.0,71,0.00,,,0.00,,2013-05-15 21:34:00,
2013-05-15 12:03:00,77.0,67.0,30.13,ENE,57,10.0,18.0,71,0.00,,,0.00,,2013-05-15 22:03:00,
2013-05-15 12:14:00,77.0,67.0,30.13,ENE,57,10.0,18.0,71,0.00,,,0.00,,2013-05-15 22:14:00,
2013-05-15 12:25:00,78.0,67.0,30.12,East,80,8.0,16.0,70,0.00,,,0.00,,2013-05-15 22:25:00,
2013-05-15 12:33:00,78.0,67.0,30.11,ESE,112,6.0,22.0,69,0.00,,,0.00,,2013-05-15 22:33:00,
2013-05-15 12:56:00,78.0,67.0,30.11,NE,53,10.0,19.0,68,0.00,,,0.00,,2013-05-15 22:56:00,
2013-05-15 13:02:00,78.0,67.0,30.11,NNE,30,8.0,18.0,68,0.00,,,0.00,,2013-05-15 23:02:00,
2013-05-15 13:12:00,78.0,67.0,30.11,NNE,30,8.0,18.0,68,0.00,,,0.00,,2013-05-15 23:12:00,
2013-05-15 13:32:00,79.0,67.0,30.10,NE,47,4.0,19.0,67,0.00,,,0.00,,2013-05-15 23:32:00,
2013-05-15 13:42:00,79.0,67.0,30.10,NE,47,4.0,19.0,67,0.00,,,0.00,,2013-05-15 23:42:00,
2013-05-15 14:01:00,78.0,65.0,30.11,NE,39,9.0,15.0,65,0.00,,,0.00,,2013-05-16 00:01:00,
2013-05-15 14:13:00,78.0,65.0,30.11,NE,39,9.0,15.0,65,0.00,,,0.00,,2013-05-16 00:13:00,
2013-05-15 14:23:00,79.0,65.0,30.11,ESE,103,8.0,23.0,62,0.00,,,0.00,,2013-05-16 00:23:00,
2013-05-15 14:33:00,78.0,66.0,30.10,East,80,7.0,22.0,66,0.00,,,0.00,,2013-05-16 00:33:00,
2013-05-15 14:42:00,78.0,67.0,30.10,ENE,69,8.0,22.0,69,0.00,,,0.00,,2013-05-16 00:42:00,
2013-05-15 14:55:00,78.0,67.0,30.10,ENE,69,8.0,22.0,69,0.00,,,0.00,,2013-05-16 00:55:00,
2013-05-15 15:12:00,79.0,67.0,30.09,NE,45,10.0,16.0,67,0.00,,,0.00,,2013-05-16 01:12:00,
2013-05-15 15:22:00,79.0,67.0,30.09,NE,45,10.0,16.0,67,0.00,,,0.00,,2013-05-16 01:22:00,
2013-05-15 15:32:00,78.0,67.0,30.09,ENE,59,8.0,18.0,68,0.00,,,0.00,,2013-05-16 01:32:00,
2013-05-15 15:43:00,78.0,67.0,30.09,ENE,59,8.0,18.0,68,0.00,,,0.00,,2013-05-16 01:43:00,
2013-05-15 16:02:00,78.0,67.0,30.09,East,86,7.0,18.0,70,0.00,,,0.00,,2013-05-16 02:02:00,
2013-05-15 16:12:00,78.0,67.0,30.09,East,86,7.0,18.0,70,0.00,,,0.00,,2013-05-16 02:12:00,
2013-05-15 16:42:00,77.0,67.0,30.09,East,88,7.0,23.0,71,0.00,,,0.00,,2013-05-16 02:42:00,
2013-05-15 16:54:00,77.0,67.0,30.09,East,88,7.0,23.0,71,0.00,,,0.00,,2013-05-16 02:54:00,
2013-05-15 17:02:00,77.0,68.0,30.09,NE,53,9.0,19.0,74,0.00,,,0.00,,2013-05-16 03:02:00,
2013-05-15 17:12:00,77.0,68.0,30.09,NE,53,9.0,19.0,74,0.00,,,0.00,,2013-05-16 03:12:00,
2013-05-15 17:23:00,76.0,67.0,30.10,ENE,67,7.0,16.0,75,0.00,,,0.00,,2013-05-16 03:23:00,
2013-05-15 17:32:00,76.0,67.0,30.10,East,81,10.0,17.0,75,0.00,,,0.00,,2013-05-16 03:32:00,
2013-05-15 17:43:00,76.0,67.0,30.10,East,81,10.0,17.0,75,0.00,,,0.00,,2013-05-16 03:43:00,
2013-05-15 17:56:00,76.0,67.0,30.10,East,83,7.0,18.0,75,0.00,,,0.00,,2013-05-16 03:56:00,
2013-05-15 18:02:00,74.0,68.0,30.10,NE,46,7.0,23.0,81,0.01,,,0.01,,2013-05-16 04:02:00,
2013-05-15 18:12:00,74.0,68.0,30.10,NE,46,7.0,23.0,81,0.01,,,0.01,,2013-05-16 04:12:00,
2013-05-15 18:22:00,73.0,68.0,30.11,NE,55,6.0,18.0,84,0.03,,,0.03,,2013-05-16 04:22:00,
2013-05-15 18:32:00,73.0,68.0,30.11,ENE,67,8.0,14.0,83,0.04,,,0.04,,2013-05-16 04:32:00,
2013-05-15 18:42:00,73.0,68.0,30.11,ENE,67,8.0,14.0,83,0.04,,,0.04,,2013-05-16 04:42:00,
2013-05-15 18:53:00,73.0,67.0,30.12,ENE,76,7.0,14.0,82,0.04,,,0.04,,2013-05-16 04:53:00,
2013-05-15 19:02:00,73.0,66.0,30.12,ENE,71,9.0,17.0,80,0.03,,,0.04,,2013-05-16 05:02:00,
2013-05-15 19:11:00,73.0,66.0,30.12,ENE,71,9.0,17.0,80,0.03,,,0.04,,2013-05-16 05:11:00,
2013-05-15 19:22:00,74.0,67.0,30.13,NE,44,10.0,19.0,79,0.01,,,0.04,,2013-05-16 05:22:00,
2013-05-15 19:32:00,74.0,67.0,30.13,NE,49,7.0,16.0,80,0.00,,,0.04,,2013-05-16 05:32:00,
2013-05-15 19:42:00,74.0,67.0,30.13,NE,49,7.0,16.0,80,0.00,,,0.04,,2013-05-16 05:42:00,
2013-05-15 19:52:00,73.0,66.0,30.13,ENE,69,5.0,22.0,80,0.00,,,0.04,,2013-05-16 05:52:00,
2013-05-15 20:01:00,72.0,68.0,30.13,ENE,62,8.0,19.0,86,0.06,,,0.10,,2013-05-16 06:01:00,
2013-05-15 20:12:00,72.0,68.0,30.13,ENE,62,8.0,19.0,86,0.06,,,0.10,,2013-05-16 06:12:00,
2013-05-15 20:22:00,72.0,67.0,30.13,ENE,69,11.0,24.0,85,0.06,,,0.10,,2013-05-16 06:22:00,
2013-05-15 20:33:00,73.0,67.0,30.13,ENE,78,7.0,16.0,82,0.06,,,0.10,,2013-05-16 06:33:00,
2013-05-15 20:42:00,73.0,67.0,30.13,ENE,78,7.0,16.0,82,0.06,,,0.10,,2013-05-16 06:42:00,
2013-05-15 20:53:00,73.0,67.0,30.14,East,86,10.0,19.0,81,0.06,,,0.10,,2013-05-16 06:53:00,
2013-05-15 21:02:00,73.0,67.0,30.15,NE,35,6.0,16.0,82,0.00,,,0.10,,2013-05-16 07:02:00,
2013-05-15 21:12:00,73.0,67.0,30.15,NE,35,6.0,16.0,82,0.00,,,0.10,,2013-05-16 07:12:00,
2013-05-15 21:24:00,73.0,67.0,30.14,NE,56,7.0,13.0,82,0.00,,,0.10,,2013-05-16 07:24:00,
2013-05-15 21:34:00,73.0,67.0,30.15,East,101,13.0,19.0,81,0.00,,,0.10,,2013-05-16 07:34:00,
2013-05-15 21:44:00,73.0,67.0,30.15,East,101,13.0,19.0,81,0.00,,,0.10,,2013-05-16 07:44:00,
2013-05-15 21:54:00,73.0,66.0,30.16,NE,55,8.0,18.0,80,0.00,,,0.10,,2013-05-16 07:54:00,
2013-05-15 22:03:00,73.0,66.0,30.16,ENE,60,8.0,14.0,80,0.00,,,0.10,,2013-05-16 08:03:00,
2013-05-15 22:13:00,73.0,66.0,30.16,ENE,60,8.0,14.0,80,0.00,,,0.10,,2013-05-16 08:13:00,
2013-05-15 22:23:00,73.0,67.0,30.16,ENE,67,9.0,15.0,81,0.00,,,0.10,,2013-05-16 08:23:00,
2013-05-15 22:34:00,74.0,67.0,30.16,ENE,71,6.0,16.0,80,0.00,,,0.10,,2013-05-16 08:34:00,
2013-05-15 22:44:00,74.0,67.0,30.16,ENE,71,6.0,16.0,80,0.00,,,0.10,,2013-05-16 08:44:00,
2013-05-15 22:54:00,73.0,66.0,30.16,East,84,9.0,18.0,80,0.00,,,0.10,,2013-05-16 08:54:00,
2013-05-15 23:03:00,73.0,66.0,30.16,ENE,57,7.0,21.0,80,0.00,,,0.10,,2013-05-16 09:03:00,
2013-05-15 23:14:00,73.0,67.0,30.16,ENE,61,7.0,15.0,81,0.00,,,0.10,,2013-05-16 09:14:00,
2013-05-15 23:23:00,73.0,67.0,30.16,ENE,61,7.0,15.0,81,0.00,,,0.10,,2013-05-16 09:23:00,
2013-05-15 23:35:00,73.0,67.0,30.15,ESE,114,8.0,16.0,82,0.00,,,0.10,,2013-05-16 09:35:00,
2013-05-15 23:45:00,73.0,67.0,30.15,ESE,114,8.0,16.0,82,0.00,,,0.10,,2013-05-16 09:45:00,
2013-05-15 23:55:00,73.0,67.0,30.15,ENE,58,10.0,15.0,82,0.00,,,0.10,,2013-05-16 09:55:00,